Weather History for 71624 - November, 2012

Change the Weather History Date:

Friday, November 16, 2012

  Actual Average Record
Temperature  
Mean Temperature 38 °F -  
Max Temperature 50 °F 39 °F - ()
Min Temperature 27 °F 25 °F - ()
Degree Days  
Heating Degree Days 26    
Moisture  
Dew Point 30 °F    
Average Humidity 70    
Maximum Humidity 86    
Minimum Humidity 50    
Precipitation  
Precipitation 0.00 in 0.09 in - ()
Sea Level Pressure  
Sea Level Pressure 30.44 in    
Wind  
Wind Speed 2 mph ()    
Max Wind Speed 6 mph    
Max Gust Speed -    
Visibility 14.4 miles    
Events      
T = Trace of Precipitation, MM = Missing Value Source: Averaged Metar Reports

Daily Weather History Graph

Daily Weather History Graph

Search for Another Location

Airport or City:

Trip Planner

Search our weather history database for the weather conditions in past years. The results will help you decide how hot, cold, wet, or windy it might be!

Date:

Astronomy

Nov. 16, 2012 Rise Set
Actual Time 7:14 AM EST 4:51 PM EST
Civil Twilight 6:43 AM EST 5:22 PM EST
Nautical Twilight 6:08 AM EST 5:57 PM EST
Astronomical Twilight 5:34 AM EST 6:31 PM EST
Moon 10:09 AM EST (11/16) 7:48 PM EST (11/16)
Length of Visible Light 10h 39m
Length of Day
9h 37m
Waxing Crescent, 11% of the Moon is Illuminated
Nov 16
Waxing Crescent
Nov 20
First Quarter
Nov 28
Full
Dec 6
Last Quarter
Dec 13
New

Hourly Weather History & Observations

Time (EST) Temp. Windchill Dew Point Humidity Pressure Visibility Wind Dir Wind Speed Gust Speed Precip Events Conditions
12:00 AM 33.8 °F - 26.6 °F 75% 30.37 in 15.0 mi Calm Calm - N/A   Partly Cloudy
1:00 AM 31 °F - 25 °F 70% 30.37 in 15 mi North 2.3 mph - -   Clear
1:00 AM 30.2 °F - 24.8 °F 80% 30.37 in 15.0 mi North 2.3 mph - N/A   Partly Cloudy
2:00 AM 30.2 °F 25.4 °F 24.8 °F 80% 30.38 in 15.0 mi NNW 4.6 mph - N/A   Partly Cloudy
3:00 AM 30.2 °F 24.3 °F 24.8 °F 80% 30.39 in 15.0 mi NNW 5.8 mph - N/A   Partly Cloudy
4:00 AM 28.4 °F 22.2 °F 24.8 °F 86% 30.38 in 15.0 mi NW 5.8 mph - N/A   Partly Cloudy
5:00 AM 26.6 °F 22.6 °F 23.0 °F 86% 30.39 in 15.0 mi WNW 3.5 mph - N/A   Partly Cloudy
6:00 AM 30.2 °F - 24.8 °F 80% 30.40 in 15.0 mi Calm Calm - N/A   Partly Cloudy
7:00 AM 30 °F - 25 °F 76% 30.41 in 15 mi NNE 3.5 mph - -   Clear
7:00 AM 30.2 °F 26.7 °F 24.8 °F 80% 30.41 in 15.0 mi North 3.5 mph - N/A   Partly Cloudy
8:00 AM 30.2 °F - 24.8 °F 80% 30.44 in 15.0 mi WNW 2.3 mph - N/A   Partly Cloudy
9:00 AM 35.6 °F 32.8 °F 30.2 °F 81% 30.45 in 15.0 mi WNW 3.5 mph - N/A   Clear
10:00 AM 41.0 °F - 32.0 °F 70% 30.45 in 15.0 mi NW 2.3 mph - N/A   Clear
11:00 AM 44.6 °F - 33.8 °F 66% 30.45 in 15.0 mi SE 2.3 mph - N/A   Clear
12:00 PM 46.4 °F - 33.8 °F 62% 30.44 in 15.0 mi North 2.3 mph - N/A   Clear
1:00 PM 47 °F - 34 °F 50% 30.43 in 15 mi North 2.3 mph - -  
1:00 PM 46.4 °F 45.2 °F 33.8 °F 62% 30.43 in 15.0 mi North 3.5 mph - N/A   Clear
2:00 PM 50.0 °F - 33.8 °F 54% 30.44 in 15.0 mi South 2.3 mph - N/A   Clear
3:00 PM 50.0 °F - 33.8 °F 54% 30.44 in 15.0 mi SW 3.5 mph - N/A   Clear
4:00 PM 46.4 °F 43.5 °F 33.8 °F 62% 30.46 in 15.0 mi SSE 5.8 mph - N/A   Partly Cloudy
5:00 PM 44.6 °F 43.1 °F 33.8 °F 66% 30.46 in 15.0 mi SE 3.5 mph - N/A   Partly Cloudy
6:00 PM 44.6 °F - 33.8 °F 66% 30.48 in 15.0 mi Calm Calm - N/A   Mostly Cloudy
7:00 PM 45 °F - 33 °F 53% 30.50 in 12 mi Calm Calm - -   Mostly Cloudy
7:00 PM 44.6 °F - 33.8 °F 66% 30.50 in 12.0 mi Calm Calm - N/A   Mostly Cloudy
8:00 PM 46.4 °F 45.2 °F 35.6 °F 66% 30.51 in 12.0 mi North 3.5 mph - N/A   Mostly Cloudy
9:00 PM 44.6 °F - 35.6 °F 71% 30.51 in 12.0 mi Calm Calm - N/A   Mostly Cloudy
10:00 PM 44.6 °F - 35.6 °F 71% 30.51 in 12.0 mi Calm Calm - N/A   Mostly Cloudy
11:00 PM 39.2 °F - 33.8 °F 81% 30.51 in 12.0 mi Calm Calm - N/A   Clear